TimeGMT,TemperatureF,Dew PointF,Humidity,Sea Level PressureIn,VisibilityMPH,Wind Direction,Wind SpeedMPH,Gust SpeedMPH,PrecipitationIn,Events,Conditions,WindDirDegrees,DateUTC
12:50 AM,48.2,46.4,93,29.71,6.2,West,9.2,-,N/A,,Haze,280,2012-12-21 00:50:00
1:50 AM,48.2,46.4,93,29.71,6.2,West,8.1,-,N/A,,Haze,280,2012-12-21 01:50:00
2:50 AM,45,43,92,29.75,5,WNW,6.9,,,,Mist,290,2012-12-21 02:50:00
2:50 AM,44.6,42.8,93,29.74,5.0,WNW,6.9,-,N/A,,Partly Cloudy,290,2012-12-21 02:50:00
3:50 AM,44.6,44.6,100,29.74,5.0,West,6.9,-,N/A,,Partly Cloudy,280,2012-12-21 03:50:00
4:50 AM,44.6,44.6,100,29.77,3.1,West,5.8,-,N/A,,Partly Cloudy,270,2012-12-21 04:50:00
5:50 AM,45,45,99,29.78,3,West,4.6,,,,Mist,270,2012-12-21 05:50:00
5:50 AM,44.6,44.6,100,29.77,3.1,West,4.6,-,N/A,,Clear,270,2012-12-21 05:50:00
6:50 AM,46.4,46.4,100,29.80,0.9,WSW,4.6,-,N/A,,Partly Cloudy,250,2012-12-21 06:50:00
7:50 AM,46.4,46.4,100,29.83,0.7,West,5.8,-,N/A,,Partly Cloudy,270,2012-12-21 07:50:00
8:50 AM,47,46,93,29.88,1,West,6.9,,,,Mist,270,2012-12-21 08:50:00
8:50 AM,46.4,46.4,100,29.86,0.9,West,6.9,-,N/A,,Partly Cloudy,270,2012-12-21 08:50:00
9:50 AM,48.2,46.4,93,29.89,1.1,West,5.8,-,N/A,,Overcast,260,2012-12-21 09:50:00
10:50 AM,48.2,48.2,100,29.89,1.1,WSW,6.9,-,N/A,,Overcast,250,2012-12-21 10:50:00
11:50 AM,50,49,96,29.92,2,WSW,6.9,,,,Mist,250,2012-12-21 11:50:00
11:50 AM,50.0,50.0,100,29.92,1.9,WSW,6.9,-,N/A,,Overcast,250,2012-12-21 11:50:00
12:50 PM,50.0,50.0,100,29.92,1.9,WSW,6.9,-,N/A,,Overcast,250,2012-12-21 12:50:00
1:50 PM,50.0,50.0,100,29.92,3.1,WSW,9.2,-,N/A,,Overcast,250,2012-12-21 13:50:00
2:50 PM,50,49,94,29.92,5,WSW,9.2,,,,Mist,240,2012-12-21 14:50:00
2:50 PM,50.0,48.2,94,29.92,5.0,WSW,9.2,-,N/A,,Overcast,240,2012-12-21 14:50:00
3:50 PM,50.0,50.0,100,29.92,5.0,SW,13.8,-,N/A,,Overcast,230,2012-12-21 15:50:00
4:50 PM,50.0,50.0,100,29.92,5.0,SW,13.8,-,N/A,,Overcast,220,2012-12-21 16:50:00
5:50 PM,50,48,89,29.92,3,SW,18.4,,,Rain,Light Rain,220,2012-12-21 17:50:00
5:50 PM,50.0,48.2,94,29.92,3.1,SW,18.4,-,N/A,Rain,Light Rain Showers,220,2012-12-21 17:50:00
6:50 PM,48.2,46.4,93,29.89,3.1,SSW,15.0,-,N/A,,Overcast,210,2012-12-21 18:50:00
7:50 PM,46.4,46.4,100,29.89,3.1,South,13.8,-,N/A,Rain,Light Rain Showers,170,2012-12-21 19:50:00
8:50 PM,47,46,94,29.89,3,SSE,15.0,,,Rain,Light Rain,160,2012-12-21 20:50:00
8:50 PM,48.2,46.4,93,29.86,3.1,SSE,15.0,-,N/A,Rain,Light Rain,160,2012-12-21 20:50:00
9:50 PM,48.2,46.4,93,29.83,3.1,South,21.9,-,N/A,Rain,Light Rain,190,2012-12-21 21:50:00
10:50 PM,48.2,48.2,100,29.80,2.5,SSE,17.3,31.1,N/A,Rain,Light Rain,160,2012-12-21 22:50:00
11:50 PM,51,51,98,29.75,2,South,17.3,,,Rain,Rain,180,2012-12-21 23:50:00
11:50 PM,51.8,50.0,94,29.74,1.9,South,17.3,34.5,N/A,Rain,Rain,180,2012-12-21 23:50:00